Precipitable_Water
0.75 0.81 0.79 0.73 0.82 0.84 0.85 0.81 0.81 0.91 0.90 0.90 0.92 0.92 0.92 0.88 0.83 0.86 0.98 1.13 1.21 1.19 1.14 1.06 0.95 0.81 0.75 0.51 0.44 0.53 0.49 0.45 0.42 0.39 0.34 0.31 0.27 0.26 0.21 0.23 0.22 0.19 0.22 0.23 0.23 0.24 0.23
0.77 0.79 0.76 0.78 0.77 0.82 0.83 0.83 0.83 0.87 0.93 0.88 0.87 0.88 0.89 0.82 0.74 0.81 1.00 1.14 1.18 1.20 1.14 0.99 0.88 0.90 0.75 0.43 0.65 0.58 0.52 0.45 0.41 0.37 0.33 0.30 0.27 0.27 0.22 0.21 0.18 0.22 0.20 0.20 0.21 0.20 0.21
0.70 0.73 0.78 0.79 0.73 0.75 0.80 0.82 0.83 0.85 0.84 0.85 0.87 0.89 0.88 0.82 0.76 0.77 1.03 1.24 1.21 1.16 1.02 0.94 0.93 0.84 0.65 0.55 0.64 0.59 0.52 0.47 0.45 0.40 0.31 0.32 0.31 0.26 0.23 0.20 0.23 0.21 0.16 0.18 0.20 0.22 0.22
0.71 0.79 0.81 0.81 0.75 0.75 0.68 0.67 0.68 0.73 0.76 0.79 0.80 0.82 0.79 0.74 0.72 0.80 1.09 1.20 1.17 1.10 1.01 0.95 0.88 0.75 0.56 0.71 0.65 0.56 0.54 0.49 0.50 0.47 0.41 0.38 0.36 0.30 0.27 0.27 0.24 0.21 0.22 0.18 0.24 0.26 0.29
0.72 0.78 0.86 0.81 0.79 0.72 0.69 0.90 0.84 0.78 0.80 0.70 0.65 0.66 0.70 0.71 0.79 0.87 1.05 1.15 1.10 0.99 0.90 0.83 0.74 0.62 0.47 0.62 0.49 0.52 0.54 0.47 0.50 0.50 0.48 0.47 0.42 0.34 0.33 0.28 0.25 0.26 0.18 0.20 0.22 0.29 0.25
0.72 0.76 0.83 0.82 0.85 0.88 0.89 0.89 0.94 0.95 0.99 0.94 0.89 0.82 0.84 0.83 0.93 1.09 0.99 0.90 0.84 0.82 0.73 0.69 0.61 0.48 0.52 0.41 0.45 0.50 0.55 0.54 0.47 0.47 0.46 0.43 0.40 0.34 0.32 0.26 0.17 0.20 0.16 0.16 0.15 0.22 0.23
0.73 0.77 0.82 0.81 0.89 0.91 0.93 0.97 0.96 0.99 1.00 0.97 0.88 0.86 0.90 1.01 0.99 0.95 0.80 0.73 0.61 0.55 0.58 0.50 0.49 0.45 0.42 0.47 0.54 0.51 0.56 0.51 0.46 0.38 0.29 0.30 0.24 0.19 0.19 0.21 0.20 0.19 0.18 0.19 0.24 0.29 0.25
0.75 0.79 0.77 0.80 0.84 0.88 0.93 0.93 0.96 0.97 0.98 0.99 0.96 0.92 0.98 1.01 0.93 0.88 0.83 0.62 0.63 0.62 0.46 0.56 0.52 0.48 0.51 0.51 0.41 0.45 0.49 0.37 0.34 0.25 0.28 0.25 0.20 0.25 0.30 0.32 0.29 0.28 0.26 0.26 0.30 0.34 0.32
0.72 0.75 0.78 0.79 0.78 0.80 0.87 0.92 0.92 0.94 0.94 0.94 0.94 0.94 0.95 0.92 0.86 0.80 0.70 0.63 0.73 0.68 0.45 0.48 0.54 0.50 0.48 0.49 0.37 0.38 0.45 0.40 0.32 0.29 0.28 0.26 0.27 0.33 0.32 0.33 0.30 0.31 0.29 0.29 0.30 0.35 0.37
0.68 0.73 0.74 0.75 0.75 0.77 0.78 0.82 0.86 0.87 0.89 0.91 0.92 0.90 0.89 0.83 0.72 0.74 0.62 0.72 0.72 0.68 0.36 0.35 0.40 0.42 0.45 0.45 0.35 0.50 0.51 0.42 0.36 0.28 0.30 0.30 0.36 0.34 0.35 0.34 0.36 0.29 0.38 0.37 0.35 0.32 0.25
0.64 0.68 0.72 0.71 0.71 0.73 0.75 0.77 0.81 0.81 0.79 0.80 0.83 0.81 0.85 0.86 0.71 0.63 0.62 0.67 0.61 0.50 0.17 0.33 0.37 0.52 0.46 0.38 0.38 0.41 0.55 0.45 0.31 0.31 0.34 0.30 0.34 0.35 0.35 0.37 0.42 0.36 0.44 0.40 0.39 0.35 0.33
0.60 0.62 0.65 0.68 0.71 0.71 0.72 0.73 0.74 0.75 0.73 0.71 0.70 0.68 0.66 0.63 0.60 0.61 0.65 0.61 0.48 0.27 0.14 0.25 0.35 0.33 0.34 0.37 0.37 0.42 0.44 0.51 0.48 0.39 0.39 0.38 0.48 0.43 0.41 0.44 0.45 0.47 0.43 0.43 0.42 0.38 0.28
0.59 0.60 0.60 0.65 0.68 0.67 0.68 0.68 0.70 0.70 0.65 0.63 0.60 0.57 0.56 0.57 0.44 0.59 0.58 0.46 0.25 0.17 0.27 0.23 0.26 0.31 0.30 0.28 0.32 0.37 0.38 0.38 0.35 0.28 0.29 0.36 0.37 0.42 0.45 0.39 0.47 0.48 0.39 0.31 0.28 0.29 0.28
0.58 0.59 0.60 0.62 0.62 0.63 0.62 0.63 0.63 0.63 0.61 0.58 0.57 0.57 0.53 0.53 0.56 0.55 0.50 0.33 0.13 0.21 0.23 0.30 0.29 0.29 0.24 0.30 0.34 0.36 0.35 0.33 0.40 0.37 0.32 0.26 0.23 0.33 0.42 0.40 0.38 0.42 0.40 0.30 0.22 0.24 0.27
0.66 0.56 0.61 0.63 0.62 0.60 0.59 0.59 0.59 0.58 0.55 0.55 0.56 0.52 0.49 0.52 0.57 0.53 0.38 0.19 0.19 0.24 0.27 0.25 0.27 0.24 0.26 0.30 0.31 0.31 0.31 0.30 0.34 0.38 0.28 0.26 0.26 0.37 0.40 0.43 0.45 0.40 0.36 0.45 0.33 0.35 0.29
0.89 0.69 0.55 0.63 0.64 0.59 0.58 0.58 0.56 0.57 0.53 0.51 0.45 0.43 0.43 0.54 0.56 0.47 0.29 0.20 0.25 0.30 0.30 0.29 0.21 0.25 0.23 0.26 0.27 0.28 0.27 0.31 0.31 0.37 0.40 0.33 0.21 0.32 0.36 0.41 0.44 0.38 0.44 0.31 0.35 0.22 0.21
1.06 0.92 0.68 0.54 0.61 0.64 0.59 0.58 0.56 0.55 0.53 0.49 0.42 0.33 0.43 0.52 0.50 0.36 0.20 0.22 0.26 0.32 0.33 0.28 0.25 0.25 0.25 0.24 0.26 0.25 0.24 0.28 0.32 0.32 0.36 0.33 0.28 0.26 0.31 0.28 0.28 0.30 0.28 0.31 0.33 0.31 0.23
0.98 1.03 0.92 0.68 0.55 0.60 0.62 0.58 0.56 0.54 0.52 0.45 0.33 0.24 0.41 0.45 0.28 0.26 0.21 0.24 0.29 0.29 0.34 0.31 0.31 0.28 0.25 0.25 0.23 0.22 0.20 0.23 0.32 0.33 0.25 0.31 0.24 0.16 0.17 0.26 0.28 0.24 0.21 0.21 0.18 0.22 0.24
0.91 0.94 1.01 0.89 0.71 0.57 0.59 0.61 0.57 0.51 0.52 0.41 0.27 0.26 0.41 0.36 0.20 0.19 0.23 0.23 0.28 0.26 0.27 0.27 0.26 0.28 0.28 0.22 0.18 0.21 0.23 0.29 0.30 0.29 0.26 0.29 0.23 0.14 0.16 0.19 0.24 0.19 0.22 0.23 0.22 0.23 0.17
0.99 0.94 0.94 1.02 0.83 0.68 0.57 0.58 0.65 0.56 0.48 0.42 0.28 0.20 0.28 0.27 0.26 0.22 0.19 0.19 0.19 0.28 0.26 0.28 0.25 0.26 0.22 0.19 0.21 0.18 0.19 0.25 0.29 0.29 0.32 0.31 0.23 0.18 0.11 0.13 0.18 0.16 0.18 0.22 0.21 0.15 0.15
1.00 1.01 0.97 0.96 1.02 0.78 0.65 0.58 0.55 0.63 0.53 0.41 0.27 0.21 0.25 0.19 0.18 0.19 0.20 0.19 0.17 0.17 0.26 0.26 0.21 0.20 0.17 0.13 0.15 0.15 0.18 0.21 0.24 0.27 0.30 0.30 0.18 0.20 0.20 0.19 0.18 0.17 0.16 0.17 0.17 0.17 0.13
1.09 1.01 1.03 0.99 1.02 0.96 0.76 0.68 0.59 0.52 0.60 0.49 0.27 0.23 0.24 0.20 0.23 0.19 0.18 0.16 0.15 0.18 0.19 0.17 0.17 0.20 0.20 0.16 0.15 0.13 0.18 0.20 0.18 0.27 0.26 0.30 0.18 0.20 0.16 0.18 0.17 0.14 0.15 0.16 0.17 0.16 0.16
1.13 1.08 1.01 1.04 1.03 1.05 0.93 0.79 0.71 0.59 0.53 0.44 0.50 0.41 0.28 0.22 0.19 0.17 0.17 0.17 0.17 0.19 0.19 0.21 0.21 0.20 0.19 0.21 0.25 0.25 0.25 0.27 0.26 0.24 0.26 0.25 0.23 0.20 0.14 0.19 0.18 0.13 0.13 0.15 0.16 0.17 0.16
1.14 1.13 1.04 1.00 1.04 1.09 1.06 0.95 0.84 0.73 0.60 0.50 0.45 0.46 0.36 0.23 0.20 0.18 0.19 0.20 0.20 0.22 0.20 0.24 0.25 0.22 0.27 0.32 0.31 0.28 0.27 0.26 0.26 0.26 0.30 0.24 0.25 0.23 0.17 0.17 0.12 0.17 0.19 0.18 0.17 0.17 0.19
1.16 1.16 1.15 1.04 1.03 1.07 1.13 1.06 0.98 0.90 0.77 0.63 0.56 0.44 0.35 0.28 0.31 0.27 0.21 0.19 0.21 0.22 0.22 0.24 0.27 0.31 0.36 0.29 0.20 0.16 0.17 0.18 0.20 0.27 0.28 0.30 0.25 0.19 0.16 0.14 0.13 0.14 0.16 0.17 0.16 0.16 0.19
1.16 1.17 1.17 1.15 1.08 1.07 1.14 1.12 1.06 1.03 0.94 0.80 0.70 0.65 0.48 0.31 0.27 0.35 0.30 0.27 0.20 0.19 0.20 0.22 0.31 0.35 0.33 0.24 0.19 0.13 0.10 0.12 0.12 0.17 0.26 0.29 0.29 0.21 0.17 0.12 0.08 0.11 0.15 0.20 0.20 0.13 0.17
1.10 1.14 1.16 1.17 1.18 1.13 1.15 1.20 1.11 1.07 1.05 0.96 0.85 0.80 0.62 0.44 0.41 0.35 0.33 0.35 0.36 0.28 0.21 0.24 0.26 0.28 0.33 0.21 0.16 0.13 0.12 0.15 0.09 0.11 0.14 0.18 0.20 0.15 0.16 0.14 0.13 0.16 0.17 0.20 0.09 0.11 0.15
1.04 1.07 1.11 1.13 1.16 1.19 1.16 1.20 1.22 1.11 1.08 1.04 0.95 0.94 0.79 0.63 0.55 0.49 0.41 0.35 0.41 0.41 0.32 0.38 0.32 0.33 0.28 0.21 0.19 0.18 0.15 0.16 0.14 0.15 0.14 0.13 0.13 0.14 0.16 0.13 0.08 0.18 0.17 0.10 0.14 0.15 0.19
0.98 1.01 1.05 1.08 1.10 1.14 1.18 1.19 1.21 1.20 1.10 1.07 0.94 0.97 0.95 0.80 0.73 0.73 0.61 0.56 0.51 0.52 0.46 0.44 0.37 0.36 0.37 0.30 0.29 0.27 0.22 0.23 0.19 0.15 0.24 0.17 0.18 0.16 0.17 0.15 0.21 0.20 0.18 0.21 0.21 0.20 0.22
Wind_Speed
44 43 38 31 30 29 26 18 16 15 15 13 13 13 18 18 22 27 30 29 24 18 22 21 20 19 18 15 14 14 13 14 13 14 14 14 15 15 16 16 17 19 19 20 22 23 25
44 43 39 34 30 30 31 23 18 16 13 12 12 13 15 16 20 26 30 31 28 23 21 20 17 14 17 15 14 13 12 11 11 12 12 13 14 15 15 16 18 18 21 23 23 25 26
43 43 41 35 31 29 29 28 23 19 13 11 13 14 14 15 19 29 30 30 27 23 20 19 15 12 10 13 14 11 10 10 10 11 11 12 14 16 16 17 18 20 22 24 24 25 26
44 41 41 37 31 30 30 27 20 18 16 13 11 11 13 15 20 31 33 30 27 24 20 18 12 9 8 10 10 10 10 9 9 10 11 12 12 14 16 17 19 21 22 23 20 22 25
46 41 42 41 36 32 30 30 27 21 17 11 10 12 16 16 22 31 37 27 28 22 17 14 10 9 8 8 7 7 7 9 10 10 11 12 13 14 16 18 20 19 22 23 23 23 26
47 43 42 41 39 36 33 31 28 26 24 21 18 18 20 21 27 33 35 30 23 18 15 12 10 7 8 6 5 5 5 6 8 10 11 12 12 13 15 16 17 18 21 22 25 23 28
45 44 41 40 39 37 36 36 30 30 29 29 28 28 29 32 35 35 31 28 20 15 12 9 8 7 8 6 4 3 4 5 6 7 8 8 8 9 10 12 13 16 20 23 25 24 26
44 43 42 39 37 38 36 36 35 33 30 33 32 31 33 35 33 30 27 22 18 18 13 10 9 8 6 4 3 1 2 2 2 2 4 5 4 7 9 11 14 15 19 20 18 19 25
42 42 41 40 37 35 35 34 34 34 32 31 30 30 32 31 28 26 23 22 19 15 12 10 8 6 4 3 3 1 0 2 2 2 3 5 6 8 10 12 13 15 16 17 17 21 19
39 40 39 39 37 34 32 32 30 31 30 28 28 26 25 25 25 24 21 20 16 12 11 7 6 5 4 4 4 1 1 2 2 3 5 6 6 7 9 11 11 11 8 10 12 14 10
36 37 37 37 37 35 32 30 28 27 27 27 27 27 26 22 23 20 17 14 11 10 8 6 6 6 5 4 2 1 1 1 2 4 5 4 4 6 7 6 5 6 8 11 12 11 13
34 34 35 35 35 35 33 30 28 26 25 25 25 24 25 23 20 16 13 12 11 8 8 7 7 6 5 4 3 1 1 1 1 2 2 2 2 2 3 5 5 9 11 8 4 5 5
31 31 31 32 33 33 33 31 28 25 23 22 20 19 17 15 14 12 10 10 8 9 9 8 7 6 5 5 4 4 4 4 3 3 3 2 0 2 2 5 3 6 7 3 3 3 6
28 28 29 29 29 30 30 30 28 25 22 20 17 15 13 11 9 8 8 8 12 11 12 12 8 7 7 5 5 4 4 3 4 3 2 3 0 1 1 3 4 5 6 6 6 8 11
26 25 25 26 26 26 27 27 26 25 22 20 18 17 15 13 11 11 12 14 15 14 12 10 8 7 6 5 4 4 3 4 4 2 3 3 1 1 2 3 3 5 5 7 6 6 6
25 23 22 22 22 23 23 24 24 22 20 19 18 17 17 15 15 14 15 15 13 12 10 8 7 6 6 6 4 4 3 4 3 2 2 3 4 2 2 3 4 4 8 5 4 7 8
24 22 19 18 18 18 18 19 20 20 18 16 16 15 16 15 14 14 14 13 12 9 7 6 7 6 5 4 3 3 4 5 4 3 3 4 2 2 3 2 3 2 4 4 6 6 7
23 21 19 16 15 15 15 15 16 16 15 13 12 12 13 13 12 12 12 11 10 9 7 6 5 4 4 4 2 3 3 4 4 5 5 5 4 4 3 3 4 5 5 5 6 5 7
21 19 17 16 14 13 13 13 13 12 12 9 9 9 9 9 10 10 9 8 6 7 5 5 4 2 3 3 3 1 3 3 2 3 5 5 4 6 3 4 4 4 3 5 6 7 5
20 18 17 14 13 11 11 11 11 11 9 6 5 5 6 6 6 6 6 5 4 3 2 2 2 1 1 1 1 2 3 3 3 3 4 5 5 5 6 9 9 9 7 5 5 5 6
19 18 17 14 11 11 9 9 9 9 8 5 3 3 2 2 3 3 2 3 2 2 1 1 0 3 2 2 2 3 4 6 5 5 5 5 7 10 13 16 16 15 15 12 11 10 7
20 18 16 13 11 10 9 8 8 8 6 4 3 2 1 1 2 2 2 3 4 2 2 3 4 3 5 5 5 6 7 6 7 4 5 5 7 13 14 12 9 13 13 13 14 14 15
20 18 16 14 12 11 10 9 8 8 6 4 4 4 4 2 3 5 5 5 5 5 5 6 5 6 7 9 10 11 11 11 10 8 7 7 8 10 7 10 15 12 10 10 7 9 11
20 20 18 15 14 12 12 11 10 9 8 7 6 7 7 6 7 7 6 7 8 9 9 7 8 9 8 10 14 15 14 15 15 14 12 10 8 8 10 13 5 6 6 7 9 10 11
22 21 20 17 16 15 14 13 12 11 10 9 8 9 9 11 10 11 11 11 11 11 12 13 13 12 12 14 12 12 9 10 9 12 13 13 12 10 9 10 15 11 6 6 6 9 9
25 23 22 19 18 18 17 16 15 14 13 12 11 11 11 12 11 13 12 12 12 13 12 13 13 13 12 12 11 11 11 10 9 9 10 11 14 12 10 11 10 7 7 8 9 10 5
27 25 23 22 21 20 19 19 18 17 16 15 14 14 14 14 15 15 16 15 13 13 13 12 12 12 13 12 12 12 13 10 11 11 10 11 13 17 16 15 16 13 10 9 10 9 9
28 28 27 25 23 23 22 21 21 21 19 18 17 17 17 17 19 18 17 18 17 17 16 13 14 14 13 14 13 13 13 12 13 13 11 12 11 12 12 14 16 7 8 12 12 13 14
32 31 30 29 27 26 24 24 24 23 23 22 21 21 21 20 21 20 21 21 21 21 19 17 17 15 15 15 15 14 15 15 15 15 15 16 16 13 14 14 13 15 17 17 17 18 19
Wind_Direction
24 27 31 38 41 44 42 51 67 95 123 137 145 152 169 172 179 184 186 181 172 161 165 173 176 189 201 196 205 219 226 230 235 236 240 243 246 249 251 256 260 263 267 269 270 272 273
28 30 35 40 43 42 42 55 73 91 109 124 139 147 154 169 174 174 171 175 174 164 160 164 172 185 197 191 209 217 223 229 234 236 242 247 250 256 255 260 263 270 270 272 273 274 274
31 33 36 39 41 43 46 56 71 78 97 113 129 141 143 156 164 171 166 166 156 160 156 163 160 156 158 195 207 212 219 228 236 242 243 251 254 259 259 263 269 272 275 274 270 274 275
32 34 36 37 42 46 49 53 66 70 79 99 128 149 149 150 160 166 161 153 155 154 153 160 165 161 172 186 200 215 224 232 241 246 250 255 258 260 267 269 270 273 274 277 272 275 276
33 36 37 41 49 50 50 53 62 66 68 86 108 134 150 146 150 160 164 150 148 151 148 157 160 158 155 171 185 204 222 235 245 251 256 260 264 266 268 273 273 269 278 281 282 278 280
35 39 41 45 49 51 51 52 61 60 64 76 93 113 129 137 142 146 155 161 153 145 149 153 154 155 171 172 186 209 232 248 252 256 257 264 269 268 273 277 278 283 284 281 282 279 284
36 39 43 47 49 51 52 54 62 62 68 74 89 104 115 119 131 140 147 153 164 160 144 147 149 143 157 169 190 220 254 259 261 263 263 271 273 278 279 283 284 285 285 286 287 291 290
37 40 43 46 49 50 55 55 62 63 71 82 89 102 105 118 127 134 130 137 145 148 131 129 127 131 149 173 176 216 267 242 274 268 257 254 274 284 286 287 287 286 291 295 293 295 297
37 39 42 46 48 51 53 56 62 65 74 82 85 105 109 114 116 123 126 129 133 133 130 125 122 123 134 150 142 128 277 236 282 310 304 287 289 286 290 293 293 292 296 304 303 309 297
36 38 41 43 46 49 52 55 61 66 72 79 84 99 116 119 116 120 122 125 129 129 126 113 122 121 135 140 133 96 344 299 270 302 297 292 292 290 296 298 305 310 322 312 310 317 309
36 37 39 41 44 47 51 55 61 66 71 79 86 94 104 113 121 118 122 126 131 132 120 119 118 122 117 121 142 71 355 285 320 306 297 297 298 304 309 327 323 317 324 312 301 305 310
35 37 39 41 43 46 51 56 61 67 73 80 88 95 101 104 107 110 114 122 127 123 113 122 122 117 127 109 104 53 16 351 318 334 334 306 345 333 351 340 314 318 326 324 320 327 322
33 36 38 40 42 46 50 55 61 66 72 79 86 93 102 101 100 98 103 120 110 109 129 126 122 118 109 81 78 50 43 51 45 37 34 1 191 10 334 338 9 5 351 3 358 356 340
30 34 37 39 42 45 49 52 56 62 68 74 79 87 97 97 94 91 107 115 102 119 116 120 113 104 89 65 83 62 53 62 75 42 358 2 307 276 113 0 359 7 12 5 339 348 336
26 29 33 37 40 44 47 50 53 57 65 70 74 82 89 88 90 96 109 102 112 111 112 107 101 88 88 88 82 64 65 42 40 34 7 357 345 338 284 331 343 14 358 356 339 321 344
21 23 27 32 37 41 45 47 50 54 61 68 76 80 84 84 89 96 102 108 109 109 106 97 84 86 79 80 79 70 57 54 34 21 7 7 316 311 348 315 282 311 349 347 4 353 346
15 18 20 24 29 35 39 42 45 48 53 66 76 81 81 82 89 93 98 105 109 111 105 95 87 85 78 66 54 38 47 64 52 46 14 3 15 359 328 266 329 331 334 331 337 325 341
7 11 13 14 18 23 29 31 35 41 47 64 73 79 75 82 88 91 99 108 108 111 107 105 93 83 70 54 37 51 54 48 52 43 28 42 18 356 340 28 341 319 316 329 343 350 319
357 1 4 6 7 12 17 25 27 34 41 58 69 75 75 84 88 92 99 104 102 109 115 112 117 104 79 54 40 42 25 45 25 16 19 27 21 354 51 30 13 339 312 302 323 339 309
346 350 353 355 1 360 6 12 20 24 30 49 67 71 75 81 88 94 105 112 109 120 105 109 87 94 91 346 254 346 338 359 354 328 347 344 320 296 308 319 327 309 297 292 291 327 322
334 337 340 342 346 352 352 359 2 10 15 34 44 63 57 80 93 99 91 112 158 137 194 196 312 241 243 325 305 301 307 312 307 325 318 318 311 302 296 295 294 289 284 274 260 259 294
327 326 329 328 327 334 340 340 346 349 353 360 352 331 318 295 265 234 217 228 241 257 258 272 261 286 262 286 302 315 306 304 305 310 301 311 316 320 314 305 302 290 280 270 265 265 263
326 323 319 314 316 313 319 322 328 331 327 313 312 300 293 274 266 260 263 264 261 258 260 270 287 285 277 287 301 300 294 286 292 293 288 298 315 329 318 331 319 303 282 251 268 272 264
317 320 315 305 301 302 300 304 307 315 314 302 291 285 280 277 268 265 270 267 262 259 270 277 275 277 294 297 297 288 285 281 276 271 269 283 296 304 312 322 317 343 333 325 261 285 268
308 310 311 302 293 292 292 289 291 294 298 294 291 283 276 276 277 272 267 268 270 266 267 270 268 274 287 294 295 298 289 290 286 267 264 263 272 295 301 307 298 306 298 287 293 312 284
302 303 302 296 292 286 282 281 281 282 283 285 284 282 281 282 274 270 270 268 272 269 269 270 273 273 275 278 281 284 286 298 285 283 286 265 261 274 290 296 297 318 299 301 305 295 282
294 295 297 294 287 285 279 276 274 275 275 277 278 276 278 278 277 268 266 271 269 270 273 274 273 273 270 269 272 274 279 285 281 278 272 272 268 260 268 281 286 290 282 285 291 302 281
289 290 289 288 287 282 278 274 272 269 269 271 276 271 274 276 278 271 268 263 268 268 271 274 277 272 266 267 273 272 276 273 279 272 273 263 269 267 265 273 282 272 277 280 299 297 293
284 284 285 283 281 279 278 273 269 268 266 266 272 271 269 271 275 276 271 268 267 265 269 265 273 272 268 271 272 278 274 274 276 279 264 273 263 277 260 273 285 272 278 278 285 286 290